Location: Borgo
(42.3939°N, 9.2791°E)
Time: 18:23:11
(UTC+00:00)

Iridium 4 Rocket - Pass Details

Date: 24 January 2021
Orbit: 583 x 906 km, 86.9° (Epoch: 02 March)

Event Time Altitude Azimuth Distance (km) Brightness Sun altitude
Rises 17:27:04 0° 5° (N) 3,437 6.7 -11.3°
Reaches altitude 10° 17:29:45 10° 13° (NNE) 2,453 5.8 -11.7°
Maximum altitude 17:34:50 37° 80° (E) 1,217 4.0 -12.6°
Drops below altitude 10° 17:39:29 10° 147° (SSE) 2,245 5.7 -13.5°
Sets 17:41:50 0° 156° (SSE) 3,110 6.5 -13.9°
